{"data":{"norad_id":68767,"epoch":"2026-09-19T08:15:25.553664Z","epoch_age_seconds":139888,"freshness":"FRESH","line1":"1 68767U 26086B   26262.34404576  .00010349  00000+0  32251-3 0  9999","line2":"2 68767  97.2865 297.7249 0000787 102.2675 257.8656 15.33439008 23503","mean_motion":15.33439008,"eccentricity":7.87e-5,"inclination_deg":97.2865,"raan_deg":297.7249,"arg_perigee_deg":102.2675,"mean_anomaly_deg":257.8656,"bstar":0.00032251,"rev_number":2350,"period_min":93.906571600662,"perigee_km":465.02240347966,"apogee_km":466.09960154525,"semimajor_km":6843.6980025125,"source":"CELESTRAK","updated_at":"2026-09-20T09:00:43.996777Z"}}